Weather in Benoy

Russia / Chechen Republic     43°03′50″N   46°00′59″E
temp.,
°C
wind,
m/s
gust,
m/s
humid.,
%
clouds,
%
prec.,
mm/h
press.,
hPa
HPBL,
m
29 june, wed
wed2900:00+14s22904 0.5 101422
03:00+14s228914 0.6 101415
06:00+16s118594 0.4 101449
09:00+22nne224834 0.5 1013978
12:00+25nne323965 0.2 10131788
15:00+26nne2237100 0.2 10122126
18:00+23nw1157100 0.0 101217
21:00+18s326680 0.0 101430
30 june, thu
thu3000:00+18s3262100 0.0 101431
03:00+16s22655 0.0 101418
06:00+18s11650 0.0 101451
09:00+23n22502 0.0 10131003
12:00+26nne324177 0.1 10111921
15:00+25ne434897 0.1 10101411
18:00+21ene12691 0.3 1012227
21:00+16s229194 0.9 101223
1 july, fri
fri100:00+15s229035 0.3 101220
03:00+15sse11902 0.3 101112
06:00+16wnw01895 0.1 1012100
09:00+21n326861 0.3 1011889
12:00+22n235462 0.5 10111190
15:00+22n225199 0.9 10101417
18:00+18w117897 0.3 101226
21:00+16sw1179100 0.4 101411
2 july, sat
sat200:00+14s1196100 3.1 101448
03:00+13sse1194100 8.1 101223
06:00+15w1190100 0.4 101321
09:00+14sw1297100 3.8 1014179
12:00+16sw1287100 2.1 1015102
15:00+18sw2467100 2.4 1015653
18:00+15s347895 0.2 101783
21:00+13s337224 0.2 101845
3 july, sun
sun300:00+13s327011 0.0 101829
03:00+12s32741 0.0 101829
06:00+15s22672 0.0 101757
09:00+20n22383 0.0 10171407
12:00+23n323421 0.0 10162030
15:00+22nnw124098 0.0 10161800
18:00+20sw115247 0.0 101665
21:00+16s325440 0.0 101834